Change the Weather History Date:

Sunday, July 14, 2013

  Actual Average Record
Temperature  
Mean Temperature 65 °F 68 °F  
Max Temperature 71 °F 77 °F 101 °F (1972)
Min Temperature 58 °F 59 °F 51 °F (1975)
Degree Days  
Heating Degree Days 0    
Month to date heating degree days 1  
Since 1 June heating degree days 14  
Since 1 July heating degree days 1  
Cooling Degree Days 0    
Month to date cooling degree days 60  
Year to date cooling degree days 231  
Since 1 June cooling degree days 157  
Growing Degree Days 14 (Base 50)    
Moisture  
Dew Point 55 °F    
Average Humidity 72    
Maximum Humidity 87    
Minimum Humidity 57    
Precipitation  
Precipitation 0.00 in 0.00 in 0.00 in (2015)
Month to date precipitation 0.00 0.01  
Year to date precipitation 1.82 9.64  
Since 1 July precipitation 0.00 0.01  
Sea Level Pressure  
Sea Level Pressure 29.98 in    
Wind  
Wind Speed 8 mph (NNW)    
Max Wind Speed 17 mph    
Max Gust Speed 28 mph    
Visibility 10 miles    
Events      
T = Trace of Precipitation, MM = Missing Value Source: NWS Daily Summary

Daily Weather History Graph

Daily Weather History Graph

Search for Another Location

Airport or City:

Trip Planner

Search our weather history database for the weather conditions in past years. The results will help you decide how hot, cold, wet, or windy it might be!

Date:

Astronomy

Jul. 14, 2013 Rise Set
Actual Time 5:58 AM PDT 8:29 PM PDT
Civil Twilight 5:28 AM PDT 8:59 PM PDT
Nautical Twilight 4:51 AM PDT 9:36 PM PDT
Astronomical Twilight 4:09 AM PDT 10:18 PM PDT
Moon 12:12 PM PDT (7/14) 11:54 PM PDT (7/14)
Length of Visible Light 15h 30m
Length of Day
14h 30m
Waxing Crescent, 36% of the Moon is Illuminated
Jul 14
Waxing Crescent
Jul 15
First Quarter
Jul 22
Full
Jul 29
Last Quarter
Aug 6
New

Hourly Weather History & Observations

Time (PDT) Temp. Dew Point Humidity Pressure Visibility Wind Dir Wind Speed Gust Speed Precip Events Conditions
12:56 AM 61.0 °F 55.0 °F 81% 29.99 in 10.0 mi North 6.9 mph - N/A   Clear
1:56 AM 60.1 °F 55.0 °F 83% 29.98 in 10.0 mi North 5.8 mph - N/A   Clear
2:56 AM 59.0 °F 54.0 °F 83% 29.98 in 10.0 mi NNW 3.5 mph - N/A   Clear
3:56 AM 57.9 °F 53.1 °F 84% 29.98 in 10.0 mi Calm Calm - N/A   Clear
4:15 AM 57.2 °F 53.6 °F 88% 29.98 in 10.0 mi North 4.6 mph - N/A   Mostly Cloudy
4:56 AM 59.0 °F 54.0 °F 83% 29.99 in 10.0 mi North 3.5 mph - N/A   Overcast
5:56 AM 59.0 °F 54.0 °F 83% 30.00 in 10.0 mi North 5.8 mph - N/A   Overcast
6:56 AM 59.0 °F 55.0 °F 87% 30.01 in 8.0 mi Calm Calm - N/A   Overcast
7:56 AM 61.0 °F 55.0 °F 81% 30.02 in 8.0 mi North 3.5 mph - N/A   Overcast
8:56 AM 61.0 °F 54.0 °F 78% 30.03 in 9.0 mi North 5.8 mph - N/A   Overcast
9:54 AM 64.4 °F 53.6 °F 68% 30.02 in 10.0 mi Variable 4.6 mph - N/A   Scattered Clouds
9:56 AM 64.0 °F 54.0 °F 70% 30.03 in 10.0 mi NNE 4.6 mph - N/A   Partly Cloudy
10:56 AM 64.9 °F 54.0 °F 68% 30.02 in 10.0 mi NNW 4.6 mph - N/A   Clear
11:56 AM 68.0 °F 55.0 °F 63% 30.02 in 10.0 mi Variable 6.9 mph - N/A   Clear
12:56 PM 69.1 °F 55.9 °F 63% 30.01 in 10.0 mi North 11.5 mph - N/A   Clear
1:56 PM 71.1 °F 55.9 °F 59% 29.99 in 10.0 mi NNW 13.8 mph - N/A   Clear
2:56 PM 70.0 °F 55.9 °F 61% 29.98 in 10.0 mi NNW 13.8 mph - N/A   Clear
3:56 PM 69.1 °F 55.9 °F 63% 29.96 in 10.0 mi NNW 12.7 mph 20.7 mph N/A   Clear
4:56 PM 68.0 °F 55.0 °F 63% 29.95 in 10.0 mi NNW 12.7 mph 19.6 mph N/A   Clear
5:56 PM 66.9 °F 55.0 °F 66% 29.94 in 10.0 mi NW 11.5 mph - N/A   Clear
6:56 PM 64.9 °F 55.0 °F 70% 29.94 in 10.0 mi NNW 12.7 mph - N/A   Clear
7:56 PM 64.0 °F 55.0 °F 73% 29.94 in 10.0 mi NNW 9.2 mph - N/A   Clear
8:56 PM 61.0 °F 54.0 °F 78% 29.95 in 10.0 mi NNW 8.1 mph - N/A   Clear
9:56 PM 60.1 °F 54.0 °F 80% 29.96 in 10.0 mi NNW 8.1 mph - N/A   Clear
10:06 PM 60.8 °F 55.4 °F 82% 29.95 in 10.0 mi NW 6.9 mph - N/A   Partly Cloudy
10:33 PM 60.8 °F 55.4 °F 82% 29.95 in 10.0 mi NNW 8.1 mph - N/A   Mostly Cloudy
10:42 PM 59.0 °F 53.6 °F 82% 29.95 in 10.0 mi NNW 6.9 mph - N/A   Partly Cloudy
10:56 PM 60.1 °F 54.0 °F 80% 29.96 in 10.0 mi North 10.4 mph - N/A   Scattered Clouds
11:08 PM 60.8 °F 53.6 °F 77% 29.95 in 10.0 mi North 10.4 mph - N/A   Mostly Cloudy
11:56 PM 60.1 °F 55.0 °F 83% 29.96 in 10.0 mi North 9.2 mph - N/A   Overcast